FW6909 Weather Reports


Display with metric or nautical units.
time (UTC)temp
F
wind
direction
speed
MPH
gust
MPH
rain 1hr
in
rain 24hr
in
rain mn
in
humidity
%
barometer
mb
20260502230043 49 64 4.0 8.0 0.15 0.31 0.00 85 1013.7
20260502225532 49 87 4.0 7.0 0.21 0.31 0.31 85 1013.7
20260502225031 49 67 3.0 9.0 0.24 0.31 0.31 85 1013.8
20260502224544 49 77 5.0 9.0 0.26 0.31 0.31 85 1013.7
20260502224031 49 68 3.0 9.0 0.27 0.31 0.31 85 1013.6
20260502223531 49 99 5.0 9.0 0.28 0.31 0.31 85 1013.7
20260502223047 49 82 4.0 8.0 0.27 0.30 0.30 84 1013.7
20260502222531 49 53 3.0 8.0 0.28 0.30 0.30 84 1013.8
20260502222031 49 71 2.0 9.0 0.29 0.29 0.29 84 1013.8
20260502221544 49 68 2.0 9.0 0.26 0.26 0.26 84 1013.8
20260502221031 49 65 5.0 9.0 0.23 0.23 0.23 83 1013.8
20260502220531 49 68 4.0 8.0 0.19 0.19 0.19 83 1013.8
20260502220042 50 94 3.0 8.0 0.14 0.14 0.14 83 1013.8
20260502215531 50 70 2.0 7.0 0.10 0.10 0.10 83 1013.9
20260502215033 50 77 4.0 8.0 0.06 0.06 0.06 82 1013.8
20260502214544 50 63 5.0 10.0 0.04 0.04 0.04 82 1013.8
20260502214031 50 78 4.0 11.0 0.03 0.03 0.03 82 1013.8
20260502213533 51 73 6.0 14.0 0.03 0.03 0.03 81 1013.8
20260502213042 51 63 8.0 14.0 0.03 0.03 0.03 81 1013.8
20260502212531 51 86 7.0 12.0 0.02 0.02 0.02 80 1013.7
20260502212031 52 84 6.0 12.0 0.00 0.00 0.00 80 1013.5
20260502211542 53 26 6.0 12.0 0.00 0.00 0.00 80 1013.5
20260502211031 54 71 4.0 9.0 0.00 0.00 0.00 79 1013.5
20260502210531 54 117 3.0 9.0 0.00 0.00 0.00 79 1013.4
20260502210040 55 61 4.0 9.0 0.00 0.00 0.00 78 1013.3
20260502205531 56 39 1.0 5.0 0.00 0.00 0.00 77 1013.4
20260502205034 56 82 1.0 5.0 0.00 0.00 0.00 76 1013.4
20260502204537 56 27 2.0 3.0 0.00 0.00 0.00 75 1013.3
20260502204031 56 68 0.0 4.0 0.00 0.00 0.00 75 1013.2
20260502203530 56 97 1.0 4.0 0.00 0.00 0.00 75 1013.2
20260502203043 56 110 1.0 4.0 0.00 0.00 0.00 76 1013.1
20260502202530 56 48 1.0 2.0 0.00 0.00 0.00 76 1013.1
20260502202033 55 0 0.0 1.0 0.00 0.00 0.00 75 1013.0
20260502201548 56 0 0.0 1.0 0.00 0.00 0.00 74 1012.9
20260502201032 56 0 0.0 1.0 0.00 0.00 0.00 74 1012.8
20260502200531 56 0 0.0 1.0 0.00 0.00 0.00 74 1012.8
20260502200039 56 0 0.0 1.0 0.00 0.00 0.00 73 1012.8
20260502195530 57 0 0.0 1.0 0.00 0.00 0.00 72 1013.0
20260502195031 57 0 0.0 1.0 0.00 0.00 0.00 72 1012.9
20260502194538 57 0 0.0 1.0 0.00 0.00 0.00 72 1012.8
20260502194031 57 0 0.0 1.0 0.00 0.00 0.00 72 1012.8
20260502193531 57 0 0.0 2.0 0.00 0.00 0.00 72 1012.6
20260502193036 57 311 1.0 3.0 0.00 0.00 0.00 71 1012.7
20260502192533 58 0 0.0 3.0 0.00 0.00 0.00 71 1012.7
20260502192030 58 350 0.0 2.0 0.00 0.00 0.00 70 1012.5
20260502191547 58 344 0.0 1.0 0.00 0.00 0.00 70 1012.4
20260502191035 59 268 0.0 1.0 0.00 0.00 0.00 69 1012.5
20260502190530 60 0 0.0 1.0 0.00 0.00 0.00 69 1012.5
20260502190043 59 0 0.0 1.0 0.00 0.00 0.00 69 1012.4
20260502185531 59 0 0.0 2.0 0.00 0.00 0.00 69 1012.6
20260502185031 59 268 0.0 3.0 0.00 0.00 0.00 68 1012.4
20260502184553 59 268 1.0 3.0 0.00 0.00 0.00 68 1012.5
20260502184031 60 284 1.0 3.0 0.00 0.00 0.00 68 1012.4
20260502183531 60 336 1.0 2.0 0.00 0.00 0.00 69 1012.4
20260502183037 60 334 1.0 4.0 0.00 0.00 0.00 69 1012.4
20260502182531 59 297 1.0 4.0 0.00 0.00 0.00 69 1012.4
20260502182030 59 289 1.0 4.0 0.00 0.00 0.00 67 1012.3
20260502181539 59 274 2.0 4.0 0.00 0.00 0.00 67 1012.4
20260502181031 59 309 2.0 5.0 0.00 0.00 0.00 68 1012.4
20260502180532 59 288 3.0 5.0 0.00 0.00 0.00 69 1012.3
20260502164030 61 309 2.0 7.0 0.00 0.00 0.00 66 1012.6
20260502163530 61 244 3.0 5.0 0.00 0.00 0.00 66 1012.6
20260502163036 61 291 1.0 5.0 0.00 0.00 0.00 67 1012.7
20260502162531 61 345 2.0 5.0 0.00 0.00 0.00 66 1012.6
20260502162030 60 299 2.0 5.0 0.00 0.00 0.00 66 1012.6
20260502161536 61 281 2.0 6.0 0.00 0.00 0.00 65 1012.6
20260502161030 61 224 3.0 9.0 0.00 0.00 0.00 64 1012.5
20260502160534 61 286 3.0 9.0 0.00 0.00 0.00 63 1012.7
20260502152031 60 278 2.0 8.0 0.00 0.00 0.00 71 1012.7
20260502151546 60 305 2.0 8.0 0.00 0.00 0.00 72 1012.9
20260502151031 60 78 1.0 6.0 0.00 0.00 0.00 73 1012.9
20260502150530 59 314 0.0 4.0 0.00 0.00 0.00 73 1013.0
20260502130530 57 301 2.0 10.0 0.00 0.00 0.00 78 1013.8
20260502123532 58 288 3.0 6.0 0.00 0.00 0.00 77 1014.0
20260502123048 57 270 3.0 6.0 0.00 0.00 0.00 77 1014.0
20260502122530 57 309 3.0 6.0 0.00 0.00 0.00 78 1014.0
20260502122033 57 244 2.0 5.0 0.00 0.00 0.00 78 1014.1
20260502121550 57 284 2.0 6.0 0.00 0.00 0.00 79 1014.1
20260502121030 56 245 2.0 7.0 0.00 0.00 0.00 79 1014.1
20260502120530 56 288 3.0 8.0 0.00 0.00 0.00 79 1014.2
20260502115531 57 278 1.0 4.0 0.00 0.00 0.00 79 1014.4
20260502115032 56 44 1.0 5.0 0.00 0.00 0.00 79 1014.3
20260502114536 56 255 1.0 5.0 0.00 0.00 0.00 80 1014.4
20260502114031 56 293 2.0 5.0 0.00 0.00 0.00 79 1014.3
20260502113531 56 264 1.0 6.0 0.00 0.00 0.00 79 1014.4
20260502113038 56 202 2.0 6.0 0.00 0.00 0.00 80 1014.5
20260502112530 56 277 1.0 6.0 0.00 0.00 0.00 80 1014.4
20260502112031 56 280 3.0 8.0 0.00 0.00 0.00 80 1014.4
20260502111549 55 286 2.0 8.0 0.00 0.00 0.00 80 1014.5
20260502111032 55 266 3.0 7.0 0.00 0.00 0.00 80 1014.4
20260502110532 55 283 2.0 7.0 0.00 0.00 0.00 80 1014.4
20260502110042 55 255 2.0 7.0 0.00 0.00 0.00 80 1014.5
20260502105532 55 293 2.0 5.0 0.00 0.00 0.00 80 1014.4
20260502105033 55 278 2.0 5.0 0.00 0.00 0.00 80 1014.5
20260502104539 55 297 2.0 5.0 0.00 0.00 0.00 81 1014.5
20260502104032 55 276 2.0 5.0 0.00 0.00 0.00 81 1014.5
20260502103532 55 285 1.0 6.0 0.00 0.00 0.00 81 1014.4
20260502103059 55 282 2.0 6.0 0.00 0.00 0.00 81 1014.5
20260502102534 55 288 2.0 5.0 0.00 0.00 0.00 81 1014.7
20260502102033 55 316 2.0 5.0 0.00 0.00 0.00 81 1014.5
20260502101542 55 0 1.0 3.0 0.00 0.00 0.00 81 1014.5
20260502101032 55 235 0.0 4.0 0.00 0.00 0.00 81 1014.5
20260502100532 55 157 1.0 7.0 0.00 0.00 0.00 81 1014.5
20260502091031 54 290 0.0 3.0 0.00 0.00 0.00 83 1014.5
20260502090530 54 309 0.0 4.0 0.00 0.00 0.00 83 1014.5
20260502071031 52 205 0.0 2.0 0.00 0.02 0.00 84 1014.2
20260502070531 51 0 0.0 2.0 0.00 0.02 0.00 84 1014.3
20260502070049 51 0 0.0 3.0 0.00 0.02 0.00 84 1014.3
20260502065531 51 262 0.0 3.0 0.00 0.02 0.00 84 1014.0
20260502065031 51 274 1.0 3.0 0.00 0.02 0.00 84 1014.2
20260502064543 51 0 0.0 3.0 0.00 0.02 0.00 84 1014.1
20260502064031 51 263 0.0 3.0 0.00 0.02 0.00 84 1014.2
20260502063531 51 270 0.0 2.0 0.00 0.02 0.00 84 1014.2
20260502063042 51 260 0.0 3.0 0.00 0.02 0.00 84 1014.3
20260502062530 51 248 0.0 3.0 0.00 0.02 0.00 84 1014.4
20260502062031 51 249 1.0 3.0 0.00 0.02 0.00 84 1014.3
20260502061537 51 240 1.0 3.0 0.00 0.02 0.00 84 1014.3
20260502061031 51 0 0.0 2.0 0.00 0.02 0.00 84 1014.3
20260502060531 51 0 0.0 1.0 0.00 0.02 0.00 84 1014.3
20260502060044 51 0 0.0 2.0 0.00 0.02 0.00 84 1014.3
20260502055532 51 266 1.0 2.0 0.00 0.02 0.00 84 1014.2
20260502055032 51 289 0.0 2.0 0.00 0.02 0.00 84 1014.3
20260502054544 51 266 0.0 2.0 0.00 0.02 0.00 84 1014.2
20260502054036 51 278 0.0 2.0 0.00 0.02 0.00 84 1014.3
20260502053532 51 195 0.0 2.0 0.00 0.02 0.00 84 1014.3
20260502053039 51 0 0.0 2.0 0.00 0.02 0.00 84 1014.3
20260502052532 50 273 0.0 2.0 0.00 0.02 0.00 84 1014.2
20260502052035 50 0 0.0 0.0 0.00 0.02 0.00 84 1014.2
20260502051536 50 160 0.0 0.0 0.00 0.02 0.00 84 1014.1
20260502051031 50 0 0.0 0.0 0.00 0.02 0.00 84 1014.1
20260502050535 50 0 0.0 0.0 0.00 0.02 0.00 84 1014.2
20260502050047 50 0 0.0 0.0 0.00 0.02 0.00 84 1014.1
20260502045532 50 0 0.0 0.0 0.00 0.02 0.00 84 1014.2
20260502045032 50 0 0.0 0.0 0.00 0.02 0.00 84 1014.1
20260502044535 50 0 0.0 0.0 0.00 0.02 0.00 84 1014.1
20260502044032 50 0 0.0 1.0 0.00 0.02 0.00 84 1014.2
20260502043531 50 0 0.0 1.0 0.00 0.02 0.00 84 1014.1
20260502043042 50 160 0.0 0.0 0.00 0.02 0.00 84 1014.1
20260502042532 50 0 0.0 0.0 0.00 0.02 0.00 84 1014.1
20260502042032 50 0 0.0 0.0 0.00 0.02 0.00 84 1014.1
20260502041543 50 0 0.0 0.0 0.00 0.02 0.00 84 1014.0
20260502041032 50 0 0.0 0.0 0.00 0.02 0.00 84 1014.2
20260502040533 50 0 0.0 1.0 0.00 0.02 0.00 84 1014.1
20260502040037 50 0 0.0 1.0 0.00 0.02 0.00 84 1014.2
20260502035532 50 0 0.0 1.0 0.00 0.02 0.00 84 1014.2
20260502035032 50 257 0.0 1.0 0.00 0.02 0.00 84 1014.3
20260502034537 50 297 0.0 1.0 0.00 0.02 0.00 84 1014.3
20260502034032 50 0 0.0 1.0 0.00 0.02 0.00 84 1014.2
20260502033532 50 0 0.0 1.0 0.00 0.02 0.00 84 1014.2
20260502033046 50 0 0.0 1.0 0.00 0.02 0.00 84 1014.2
20260502032531 50 0 0.0 1.0 0.00 0.02 0.00 84 1014.3
20260502032031 50 0 0.0 1.0 0.00 0.02 0.00 84 1014.2
20260502031543 50 0 0.0 1.0 0.00 0.02 0.00 84 1014.4
20260502031032 50 0 0.0 0.0 0.00 0.02 0.00 84 1014.4
20260502030531 50 0 0.0 1.0 0.00 0.02 0.00 84 1014.4
20260502030042 50 0 0.0 1.0 0.00 0.02 0.00 83 1014.5
20260502025532 50 0 0.0 1.0 0.00 0.02 0.00 83 1014.4
20260502025032 50 0 0.0 1.0 0.00 0.02 0.00 83 1014.5
20260502024540 50 0 0.0 1.0 0.00 0.02 0.00 83 1014.6
20260502024032 50 0 0.0 2.0 0.00 0.02 0.00 83 1014.6
20260502023532 50 0 0.0 2.0 0.00 0.02 0.00 83 1014.7
20260502023037 51 0 0.0 2.0 0.00 0.02 0.00 83 1014.7
20260502022532 51 0 0.0 1.0 0.00 0.02 0.00 83 1014.8
20260502022033 51 0 0.0 0.0 0.00 0.02 0.00 83 1014.7
20260502021536 51 0 0.0 0.0 0.00 0.02 0.00 83 1014.8
20260502021031 51 0 0.0 0.0 0.00 0.02 0.00 83 1014.7
20260502020531 51 0 0.0 1.0 0.00 0.02 0.00 83 1014.8
20260502020035 51 0 0.0 1.0 0.00 0.02 0.00 83 1014.9
20260502015535 51 0 0.0 0.0 0.00 0.02 0.00 83 1014.9
20260502015032 51 0 0.0 1.0 0.00 0.02 0.00 82 1014.9
20260502014547 51 0 0.0 2.0 0.00 0.02 0.00 82 1015.1
20260502014033 51 0 0.0 2.0 0.00 0.02 0.00 82 1015.2
20260502013532 51 0 0.0 2.0 0.00 0.02 0.00 82 1015.3
20260502013046 51 239 1.0 2.0 0.00 0.02 0.00 82 1015.3
20260502012532 51 264 0.0 1.0 0.00 0.02 0.00 82 1015.2
20260502012032 52 259 0.0 1.0 0.00 0.02 0.00 82 1015.3
20260502011539 51 0 0.0 1.0 0.00 0.02 0.00 82 1015.4
20260502011032 51 0 0.0 1.0 0.00 0.02 0.00 82 1015.5
20260502010531 52 0 0.0 2.0 0.00 0.02 0.00 82 1015.5
20260502010052 52 4 0.0 2.0 0.00 0.02 0.00 82 1015.6
20260502005532 52 4 0.0 2.0 0.00 0.02 0.00 82 1015.6
20260502005032 52 0 0.0 2.0 0.00 0.02 0.00 82 1015.5
20260502004552 52 28 0.0 2.0 0.00 0.02 0.00 82 1015.6
20260502004031 52 0 0.0 1.0 0.00 0.02 0.00 82 1015.7
20260502003531 52 260 0.0 2.0 0.00 0.02 0.00 82 1015.6
20260502003035 52 0 0.0 2.0 0.00 0.02 0.00 81 1015.8
20260502002531 52 259 0.0 2.0 0.00 0.02 0.00 81 1015.7
20260502002031 52 271 0.0 2.0 0.00 0.02 0.00 81 1015.7
20260502001543 52 237 0.0 2.0 0.00 0.02 0.00 81 1015.6
20260502001031 52 276 0.0 2.0 0.00 0.02 0.00 81 1015.8
20260502000532 52 0 0.0 2.0 0.00 0.02 0.00 81 1015.7
20260502000051 53 250 0.0 2.0 0.00 0.02 0.00 81 1015.8
20260501235531 53 250 0.0 2.0 0.00 0.02 0.00 81 1015.9
20260501235031 53 276 1.0 2.0 0.00 0.02 0.00 81 1015.8
20260501234538 52 79 0.0 1.0 0.00 0.02 0.00 81 1015.9
20260501234032 52 0 0.0 2.0 0.00 0.02 0.00 81 1015.9
20260501233532 52 78 1.0 2.0 0.00 0.02 0.00 81 1016.0
20260501233043 52 143 0.0 2.0 0.00 0.02 0.00 81 1015.9
20260501232531 52 80 1.0 3.0 0.00 0.02 0.00 81 1015.9
20260501232031 52 279 1.0 3.0 0.00 0.02 0.00 81 1016.0
20260501231543 53 0 0.0 3.0 0.00 0.02 0.00 81 1016.0
20260501231031 53 20 0.0 3.0 0.00 0.02 0.00 80 1016.0
20260501230531 53 68 0.0 5.0 0.00 0.02 0.00 80 1015.8